Regional Weather Roundup
Issued by NWS Wakefield, VA

Home | Current Version | Previous Version | Text Only | Print | Product List | Glossary On
Versions: 1 2 3 4 5 6 7 8 9 10 11 12 13 14 15 16 17 18 19 20 21 22 23 24 25 26 27 28 29 30 31 32 33 34 35 36 37 38 39 40 41 42 43 44 45 46 47 48 49 50
514
ASUS41 KAKQ 060115
RWRAKQ

REGIONAL WEATHER ROUNDUP
NATIONAL WEATHER SERVICE WAKEFIELD VA
800 PM EST MON DEC 05 2016

Note: "fair" indicates few or no clouds below 12,000 feet with no
significant weather and/or obstructions to visibility. * = Denotes
station may not report precipitation (e.g., rain,snow,etc.),
thunder or fog.

VAZ042-051-052>054-056-060200-
NORTHERN VIRGINIA

CITY           SKY/WX    TMP DP  RH WIND       PRES   REMARKS
WASH NATIONAL  CLOUDY    50  36  58 N8        30.10R
DULLES         CLOUDY    47  31  53 N7        30.09R
FORT BELVOIR   CLOUDY    49  34  56 CALM      30.09R
QUANTICO       CLOUDY    45  40  82 NW6       30.10R
FREDERICKSBRG* CLOUDY    42  42 100 CALM      30.09R
STAFFORD*      CLOUDY    39  39 100 CALM      30.14R
WARRENTON      CLOUDY    39  35  83 CALM      30.09R
CULPEPER*      CLOUDY    44  41  92 CALM      30.11R
MANASSAS*      NOT AVBL
LEESBURG*      CLOUDY    46  34  61 N3        30.11R
WINCHESTER     PTCLDY    41  30  65 NE3       30.10R
FRONT ROYAL*   FAIR      45  32  61 CALM      30.09R
LURAY*         FAIR      45  36  70 NE3       30.08R
$$

VAZ048-049-060>072-079>083-060200-
CENTRAL AND SOUTH CENTRAL VIRGINIA

CITY           SKY/WX    TMP DP  RH WIND       PRES   REMARKS
RICHMOND       CLOUDY    43  40  89 CALM      30.09R
CHESTERFIELD*  FAIR      45  28  53 CALM      30.10S
PETERSBURG*    PTCLDY    41  40  96 CALM      30.09S
HANOVER        CLOUDY    42  40  92 CALM      30.10R
TAPPAHANNOCK*  CLOUDY    41  41 100 CALM      30.11R
QUINTON*       FAIR      42  42  98 CALM      30.09R
CHARLOTTSVILLE MOCLDY    48  41  76 CALM      30.08R
GORDONSVILLE*  FAIR      42  41  97 CALM      30.09R
ORANGE*          N/A     43  43 100 CALM      30.11R
LOUISA*        CLOUDY    43  43 100 CALM      30.08R
BUMPASS*       FAIR      40  40 100 CALM      30.09R
FARMVILLE*     CLOUDY    47  44  88 N3        30.06S
CREWE*         FAIR      43  43 100 CALM      30.08R
FORT PICKETT*  FAIR      45  41  87 E5        30.07S
CHASE CITY*    FAIR      48  42  77 CALM      30.06S
CLARKSVILLE*   FAIR      50  45  81 E3        30.06R
SOUTH HILL*    CLOUDY    46  44  95 CALM      30.12S
LAWRENCEVILLE* FAIR      47  43  86 CALM      30.08R
EMPORIA*       CLOUDY    45  43  93 CALM      30.09S
$$

VAZ088>098-060200-
SOUTHEAST VIRGINIA

CITY           SKY/WX    TMP DP  RH WIND       PRES   REMARKS
NORFOLK        MOCLDY    50  41  71 NE12      30.08R
VIRGINIA BEACH MOCLDY    46  39  76 N5        30.08R
NORFOLK NAVAL  CLOUDY    49  41  74 N9        30.10R
WEST POINT*    CLOUDY    40  39  95 E5        30.12R
SALUDA*        FAIR      42  42 100 CALM      30.09R
NEWPORT NEWS   PTCLDY    41  41 100 CALM      30.10R
LANGLEY AFB    CLOUDY    43  42  96 CALM      30.09R
FORT EUSTIS    CLOUDY    44  39  84 CALM      30.07R
WILLIAMSBURG*  MOCLDY    45  43  93 CALM      30.11R
HR EXEC AP*    FAIR      39  37  93 CALM      30.08S
FRANKLIN*      CLOUDY    42  41  94 CALM      30.08F
US460-WAKEFLD  PTCLDY    42  41  96 CALM      30.09R
$$

VAZ020-022-025-037-045-060200-
WEST CENTRAL AND SOUTHWEST VIRGINIA

CITY           SKY/WX    TMP DP  RH WIND       PRES   REMARKS
STAUNTON*      PTCLDY    42  33  70 CALM      30.08S
WAYNESBORO*    FAIR      44  33  64 E3        30.06S
HOT SPRINGS VA NOT AVBL
LYNCHBURG      CLOUDY    45  42  89 CALM      30.06S
DANVILLE       CLOUDY    47  45  93 CALM      30.05S
SOUTH BOSTON*  FAIR      48  41  75 CALM      30.07S
MARTINSVILLE   CLOUDY    49  43  80 CALM      30.07R
ROANOKE        CLOUDY    50  38  63 E6        30.05F
BLACKSBURG     CLOUDY    46  37  70 CALM      30.05S
DUBLIN*        CLOUDY    46  38  72 CALM      30.03S
MARION*        CLOUDY    47  39  73 NE7       30.02S
HILLSVILLE*    DRIZZLE   45  42  88 CALM      30.00S
RICHLANDS*     CLOUDY    45  20  36 CALM      29.96R
WISE*          CLOUDY    43  41  93 CALM      29.96S
ABINGDON*      CLOUDY    51  40  64 E8        29.95S
$$

MDZ021>025-VAZ099-100-060200-
SOUTHERN MARYLAND AND THE DELMARVA PENINSULA

CITY           SKY/WX    TMP DP  RH WIND       PRES   REMARKS
PATUXENT RIVER CLOUDY    40  38  93 CALM      30.08R
BAY BRIDGE APT CLOUDY    43  39  87 N3        30.09R
LEONARDTOWN    CLOUDY    41  37  87 CALM      30.09R
DOVER          PTCLDY    42  42 100 CALM      30.08R
GEORGETOWN     CLOUDY    44  38  79 N6        30.09R
EASTON         CLEAR     43  37  81 CALM      30.13R
CAMBRIDGE      CLOUDY    43  37  81 NE5       30.08R
SALISBURY      PTCLDY    40  39  97 CALM      30.08R
OCEAN CITY     PTCLDY    42  38  85 N7        30.07S
WALLOPS ISLAND PTCLDY    42  40  92 N7        30.08R
ACCOMACK*      PTCLDY    39  39  98 CALM      30.08R
$$

NCZ012>017-030>032-060200-
NORTH CENTRAL AND EASTERN NORTH CAROLINA

CITY           SKY/WX    TMP DP  RH WIND       PRES   REMARKS
ROANOKE RAPIDS FAIR      46  43  87 NE3       30.07S
RALEIGH        LGT RAIN  53  43  68 E7        30.07R
ELIZABETH CITY CLOUDY    48  42  80 N13       30.06F
AHOSKIE*       CLOUDY    46  43  90 CALM      30.08S
EDENTON*       CLOUDY    48  42  80 CALM      30.07S
CURRITUCK*     CLOUDY    48  42  79 N3        30.09R
KILL DEVIL HLS CLOUDY    51  47  88 N6        30.04F
MANTEO         CLOUDY    50  46  85 NE9       30.06F
CAPE HATTERAS  CLOUDY    52  46  80 NE7       30.05R
TARBORO*       NOT AVBL
GOLDSBORO      CLOUDY    53  49  87 NE5       30.06R
WASHINGTON     CLOUDY    49  44  85 NE3       30.07R
GREENVILLE     MOCLDY    52  46  82 NE3       30.08R
NEW BERN       CLOUDY    51  46  83 NE9       30.07R
WILMINGTON     CLOUDY    54  50  86 NE5       30.05R
$$

VAZ048-060200-
ELSEWHERE

CITY           SKY/WX    TMP DP  RH WIND       PRES   REMARKS
HARRISBURG PA  CLOUDY    38  32  79 NW3       30.10R
BALTIMORE      CLOUDY    45  33  63 N5        30.09R
ANNAPOLIS      CLOUDY    47  40  76 N3        30.09R
ANDREWS AFB    CLOUDY    40  36  84 N3        30.08R
PHILADELPHIA   MOCLDY    47  33  58 NW10      30.10R
HENDERSON NC   CLOUDY    45  41  85 E3        30.06R
GREENSBORO     LGT RAIN  51  43  74 E6        30.05R
ROCKY MOUNT    CLOUDY    50  46  86 CALM      30.08R
$$

VAZ100-060200-
MARINE

STATION/POSITION TIME  TEMP    WIND        PRES    WAVE   SWELL
                       AIR SEA DIR/SP/G            HT/PER HT/PER
                 (UTC) (F)     (DEG/KT/KT) (MB)    (FT/S) (FT/S)
BRANDYWINE LGT   0048   48      10/ 11/ 12   N/A
CAPE MAY NJ      0048   47 48  350/  6/  9 1018.2R
LEWES DE         0048   49 49   10/ 12/ 15 1018.3R
OCEAN-CITY-INLET 0048           10/  7/  9   N/A
WACHAPREAGUE VA  0048   44 49   CALM  /  2 1018.4R
THOMAS POINT MD  0100   50 49  340/  8/  9   N/A
GOOSES REEF MD   0100   50 50   50/  6/  8 1019.2    0
COVE POINT MD    0048   49     360/  7/  8 1019.0R
SOLOMONS ISLAND  0048           CALM  /  2   N/A
BISHOPS HEAD MD  0048   45 47  330/  3/  6 1018.7R
PINEY POINT MD   0048           CALM  /  1   N/A
POTOMAC MD       0100   48 50   20/  4/  4 1017.8    0
CAMBRIDGE MD     0048   46 47  340/  5/  5 1018.0R
LEWISETTA VA     0048   45 49  290/  2/  3 1018.4R
RAPPAHANNOCK LGT 0048          340/  7/  8 1019.2R
STINGRAY PT      0050   49     350/  6/  6 1019.1R
YORK RVR RNG VA  0048   49      30/  5/  6 1018.5R
YORKTOWN VA      0048   48 52   20/  3/  4 1018.7R
JAMESTOWN VA     0100   46 52   40/  2/  2   N/A     0
DOMINION TERM VA 0048   48      20/  4/  5 1018.8R
KIPTOPEKE VA     0048      52   60/  1/  4   N/A
CHES BAY BRIDGE  0048   51 54   20/ 12/ 14 1018.7R
CAPE HENRY VA    0048   50     360/ 10/ 12   N/A
WILLOUBY STN VA  0048   50      10/  6/  7 1019.6R
S CRANEY ISL VA  0048   50      20/  7/  8 1018.6R
CAPE HENRY BUOY  0042      56                N/A     3/ 4
1ST LANDING BUOY 0100   51 54              1019.1    2/ 3
CAPE CHARLES BUO 0056      55                N/A     3/ 8
OFFSHORE WE BUOY 0051      57                N/A     4/ 7
64NM E OF VA BCH 0050   54 60   10/ 17/ 21 1017.3R   6/ 5   2/ 8
DUCK PIER NC     0048   52 54   20/ 14/ 16 1017.2F
44100 DUCK FRF   0035      56                N/A     5/ 5
OREGON INLET NC  0048           10/ 10/ 15   N/A
HATTERAS NC      0048   53 60   30/ 10/ 12 1017.3R
DIAMOND SHLS NC  0050   57 76   20/ 16/ 21 1016.9R   5/ 8   3/ 8
CAPE LOOKOUT NC  0000   56      50/ 20/ 22 1016.5R
$$




USA.gov is the U.S. government's official web portal to all federal, state and local government web resources and services.